Location: Cottbus
(51.7000°N, 14.3000°E)
Time: 04:20:45
(UTC+01:00)

ISS - Visible Passes

Search period start: 01 December 2023 00:00
Search period end: 11 December 2023 00:00
Orbit: 416 x 417 km, 51.6° (Epoch: 30 November)

Date Brightness Start Highest point End Pass type
(mag) Time Alt. Az. Time Alt. Az. Time Alt. Az.
01 Dec -3.7 16:40:58 10° W 16:44:20 82° SSW 16:47:43 10° ESE visible
01 Dec -2.3 18:17:49 10° W 18:20:53 32° SSW 18:21:31 30° S visible
02 Dec -2.7 17:29:19 10° W 17:32:33 44° SSW 17:35:26 12° SE visible
02 Dec -0.6 19:07:22 10° WSW 19:08:22 12° SW 19:08:22 12° SW visible
03 Dec -3.1 16:40:48 10° W 16:44:07 58° SSW 16:47:26 10° ESE visible
03 Dec -1.1 18:18:05 10° W 18:20:23 17° SW 18:22:28 11° S visible
04 Dec -1.5 17:29:15 10° W 17:32:02 24° SSW 17:34:49 10° SSE visible
05 Dec -2.0 16:40:31 10° W 16:43:36 34° SSW 16:46:39 10° SE visible
06 Dec -0.5 17:29:41 10° WSW 17:31:11 12° SW 17:32:41 10° SSW visible
07 Dec -0.7 16:40:20 10° W 16:42:44 18° SW 16:45:07 10° S visible
